This demonstration page uses our WeatherBlox Daily Observations layout. Learn more.

Left ArrowRight Arrow

39.08367, -84.50855

Hourly Observations for May 14, 2017

Temp ( °F °C ) Dew Point ( °F °C ) Humidity (%) Winds ( mph kmh ) Pressure ( in mb ) Visibility ( mi km ) Precip ( " mm )
12:53 am 00:53 Clear 54 12.2 52 11.1 93 93 N N/A 29.87 1011 10 16.0934 N/A
1:53 am 01:53 Clear 53 11.7 52 11.1 96 96 N N/A 29.87 1012 10 16.0934 N/A
2:53 am 02:53 Clear 50 10 50 10 100 100 SSW 3 6 29.87 1012 9 14.48406 N/A
3:53 am 03:53 Clear with Mist and Fog 50 10 50 10 100 100 N N/A 29.87 1011 6 9.65604 N/A
4:53 am 04:53 Clear 50 10 50 10 100 100 NE 3 6 29.87 1012 8 12.87472 N/A
5:53 am 05:53 Clear 51 10.6 50 10 96 96 N N/A 29.88 1012 9 14.48406 N/A
6:53 am 06:53 Sunny 51 10.6 50 10 96 96 N N/A 29.9 1012 10 16.0934 N/A
7:53 am 07:53 Sunny 62 16.7 56 13.3 80 80 SSW 6 9 29.91 1013 10 16.0934 N/A
8:53 am 08:53 Sunny 67 19.4 56 13.3 68 68 WSW 8 13 29.91 1013 10 16.0934 N/A
9:53 am 09:53 Sunny 72 22.2 56 13.3 57 57 W 9 15 29.92 1013 10 16.0934 N/A
10:53 am 10:53 Sunny 75 23.9 56 13.3 52 52 W 10 17 29.93 1013 10 16.0934 N/A
11:53 am 11:53 Sunny 78 25.6 55 12.8 45 45 WNW 12 19 29.93 1014 10 16.0934 N/A
12:53 pm 12:53 Sunny 80 26.7 56 13.3 44 44 W 14 22 29.93 1014 10 16.0934 N/A
1:53 pm 13:53 Sunny 81 27.2 56 13.3 42 42 NW 14 22 29.91 1013 10 16.0934 N/A
2:53 pm 14:53 Mostly Sunny 82 27.8 58 14.4 44 44 W 13 20 29.91 1013 10 16.0934 N/A
3:53 pm 15:53 Partly Cloudy 82 27.8 57 13.9 42 42 W 16 26 29.89 1012 10 16.0934 N/A
4:53 pm 16:53 Mostly Sunny 82 27.8 57 13.9 42 42 W 14 22 29.88 1012 10 16.0934 N/A
5:53 pm 17:53 Partly Cloudy 82 27.8 58 14.4 44 44 W 9 15 29.87 1012 10 16.0934 N/A
6:53 pm 18:53 Mostly Sunny 80 26.7 57 13.9 45 45 W 13 20 29.87 1011 10 16.0934 N/A
7:53 pm 19:53 Mostly Sunny 78 25.6 57 13.9 48 48 W 10 17 29.86 1011 10 16.0934 N/A
8:53 pm 20:53 Clear 72 22.2 57 13.9 59 59 SW 6 9 29.87 1011 10 16.0934 N/A
9:53 pm 21:53 Clear 67 19.4 57 13.9 71 71 SW 8 13 29.88 1012 10 16.0934 N/A
10:53 pm 22:53 Clear 68 20 57 13.9 68 68 N N/A 29.9 1012 10 16.0934 N/A
11:53 pm 23:53 Clear 70 21.1 55 12.8 59 59 N N/A 29.91 1013 10 16.0934 N/A

Powered by AerisWeather